Flag for Croatia Weather past 2 weeks in Zagreb, Croatia

Now
77 °F

Sunny.


Feels Like: 79 °F
Forecast: 64 / 90 °F
Wind: 1 mph from North

Location: Zagreb / Pleso

Current Time: Aug 3, 2015 at 9:12:42 PM

Latest Report: Aug 3, 2015 at 9:00 PM


Visibility: 10 mi

Pressure: 30.04 "Hg

Humidity: 69%

Dew point: 66 °F

Location of ZagrebLocation

Historic Weather in Zagreb — Graph

°F

Zagreb temperature yesterday

Maximum temperature yesterday: 86 °F (at 4:00 PM)
Minimum temperature yesterday: 64 °F (at 6:00 AM)
Average temperature yesterday: 74 °F

Past Weeks' High & Low Weather Summary

 TemperatureHumidityPressure
High99 °F (Jul 23, 3:00 PM)94% (Jul 23, 7:00 PM)30.07 "Hg (Jul 23, 7:00 PM)
Low54 °F (Aug 1, 3:00 AM)30% (Jul 22, 2:30 PM)29.74 "Hg (Jul 25, 2:00 PM)
Average72 °F72%29.92 "Hg
* Reported Jul 19 8:00 PM — Aug 3 8:00 PM, Zagreb, Weather by CustomWeather, © 2015

Note: Actual official high and low records may vary slightly from our data, if they occured in-between our weather recording intervals... More about our weather records

Advertising

Zagreb weather history for previous 24 hours

 ConditionsComfort  
Time TempWeatherWind HumidityBarometerVisibility
8:00 PM
Mon, Aug 3
81 °FPassing clouds.3 mph62%30.01 "HgN/A
7:30 PM81 °FPassing clouds.5 mph62%30.01 "HgN/A
7:00 PM82 °FPassing clouds.3 mph58%30.01 "HgN/A
6:30 PM82 °FPassing clouds.2 mph58%30.01 "HgN/A
6:00 PM82 °FPassing clouds.3 mph55%30.04 "HgN/A
5:30 PM82 °FPassing clouds.5 mph58%30.04 "HgN/A
5:00 PM84 °FPassing clouds.2 mph55%30.04 "HgN/A
4:30 PM82 °FPassing clouds.5 mph58%30.04 "HgN/A
4:00 PM82 °FPassing clouds.3 mph58%30.04 "HgN/A
3:30 PM81 °FScattered clouds.2 mph62%30.07 "HgN/A
3:00 PM82 °FBroken clouds.5 mph58%30.07 "HgN/A
2:30 PM81 °FScattered clouds.3 mph62%30.07 "HgN/A
2:00 PM82 °FScattered clouds.2 mph58%30.07 "HgN/A
1:30 PM81 °FScattered clouds.6 mph62%30.07 "HgN/A
1:00 PM79 °FBroken clouds.6 mph65%30.07 "HgN/A
12:30 PM79 °FBroken clouds.5 mph65%30.07 "HgN/A
12:00 PM79 °FScattered clouds.3 mph65%30.07 "HgN/A
11:30 AM77 °FPassing clouds.3 mph69%30.07 "HgN/A
11:00 AM75 °FPassing clouds.5 mph74%30.07 "HgN/A
10:30 AM73 °FPassing clouds.3 mph74%30.07 "HgN/A
10:00 AM72 °FScattered clouds.2 mph83%30.07 "HgN/A
9:30 AM72 °FPartly sunny.3 mph83%30.07 "HgN/A
9:00 AM70 °FPartly sunny.5 mph88%30.07 "HgN/A
8:30 AM70 °FOvercast.1 mph88%30.07 "HgN/A
8:00 AM68 °FOvercast.2 mph88%30.07 "HgN/A
7:30 AM66 °FOvercast.1 mph88%30.07 "HgN/A
7:00 AM64 °FOvercast.2 mph94%30.07 "HgN/A
6:30 AM64 °FOvercast.3 mph94%30.07 "HgN/A
6:00 AM64 °FPassing clouds.1 mph94%30.04 "HgN/A
5:30 AM64 °FPassing clouds.2 mph88%30.04 "HgN/A
5:00 AM64 °FPassing clouds.2 mph88%30.04 "HgN/A
4:30 AM64 °FPassing clouds.1 mph88%30.04 "HgN/A
4:00 AM64 °FPassing clouds.2 mph88%30.04 "HgN/A
3:30 AM64 °FPassing clouds.2 mph88%30.04 "HgN/A
3:00 AM64 °FPassing clouds.2 mph88%30.04 "HgN/A
2:30 AM64 °FClear.3 mph88%30.04 "Hg10 mi
2:00 AM64 °FPassing clouds.5 mph88%30.04 "HgN/A
1:30 AM66 °FPassing clouds.3 mph83%30.04 "HgN/A
1:00 AM68 °FPassing clouds.3 mph83%30.04 "HgN/A
12:30 AM68 °FPassing clouds.1 mph88%30.07 "HgN/A
12:00 AM68 °FPassing clouds.1 mph88%30.04 "HgN/A
11:30 PM
Sun, Aug 2
70 °FPassing clouds.No wind83%30.04 "HgN/A
11:00 PM70 °FPassing clouds.5 mph83%30.04 "HgN/A
10:30 PM72 °FClear.7 mph83%30.04 "Hg10 mi
10:00 PM73 °FPassing clouds.8 mph83%30.04 "HgN/A
9:30 PM72 °FPassing clouds.2 mph83%30.04 "HgN/A
9:00 PM72 °FPassing clouds.3 mph83%30.04 "HgN/A
Weather by CustomWeather, © 2015

See weather overviewHow to use our weather pages